This is the latest recevied weather packets stored in our database for station/object W2OBX. If no packets are shown the sender has not sent any weather packets the latest 10 day(s).
| Time | Temp. | Humidity | Pressure | Rain* | Wind** | Luminosity | Snow |
|---|---|---|---|---|---|---|---|
| 1777729754 | 11.67° C | 58% | 1016.4 hPa | 0 mm | - | 19 W/m² | - |
| 1777729451 | 11.67° C | 59% | 1016.4 hPa | 0 mm | - | 25 W/m² | - |
| 1777729148 | 11.67° C | 58% | 1016.5 hPa | 0 mm | - | 38 W/m² | - |
| 1777728844 | 11.67° C | 59% | 1016.5 hPa | 0 mm | - | 27 W/m² | - |
| 1777728541 | 11.67° C | 60% | 1016.4 hPa | 0 mm | - | 36 W/m² | - |
| 1777728239 | 11.67° C | 60% | 1016.5 hPa | 0 mm | - | 34 W/m² | - |
| 1777727935 | 11.11° C | 64% | 1016.4 hPa | 0 mm | - | 29 W/m² | - |
| 1777727633 | 11.11° C | 63% | 1016.5 hPa | 0 mm | - | 23 W/m² | - |
| 1777727329 | 11.11° C | 64% | 1016.2 hPa | 0 mm | - | 19 W/m² | - |
| 1777727027 | 11.11° C | 63% | 1016.4 hPa | 0 mm | - | 15 W/m² | - |
| 1777726724 | 11.11° C | 65% | 1016.5 hPa | 0 mm | - | 21 W/m² | - |
| 1777726421 | 11.11° C | 66% | 1016.5 hPa | 0 mm | - | 23 W/m² | - |
| 1777726118 | 11.11° C | 67% | 1016.7 hPa | 0 mm | - | 21 W/m² | - |
| 1777725815 | 10.56° C | 67% | 1016.3 hPa | 0 mm | - | 23 W/m² | - |
| 1777725513 | 10.56° C | 69% | 1016.3 hPa | 0 mm | - | 23 W/m² | - |
| 1777725210 | 10.56° C | 67% | 1016.5 hPa | 0 mm | - | 20 W/m² | - |
| 1777724907 | 10.56° C | 67% | 1016.3 hPa | 0 mm | - | 21 W/m² | - |
| 1777724602 | 10.56° C | 66% | 1016.6 hPa | 0 mm | - | 19 W/m² | - |
| 1777724302 | 10.56° C | 67% | 1016.3 hPa | 0 mm | - | 19 W/m² | - |
| 1777723998 | 10.56° C | 67% | 1016.4 hPa | 0 mm | - | 18 W/m² | - |
| 1777723695 | 10.56° C | 66% | 1016.5 hPa | 0 mm | - | 20 W/m² | - |
| 1777723391 | 10.56° C | 68% | 1016.1 hPa | 0 mm | - | 17 W/m² | - |
| 1777723089 | 10.56° C | 67% | 1016.1 hPa | 0 mm | - | 15 W/m² | - |
| 1777722786 | 10.56° C | 67% | 1015.7 hPa | 0 mm | - | 16 W/m² | - |
| 1777722482 | 10.56° C | 68% | 1015.6 hPa | 0 mm | - | 11 W/m² | - |
* Rain latest hour (hover to see other rain measurements)
** Current wind speed in m/s (hover to see current wind gust speed)